Location: Hamburg
(53.5500°N, 10.0000°E)
Time: 06:05:17
(UTC+02:00)

A-11 Canister half - All Passes

Search period start: 20 June 2018 00:00
Search period end: 30 June 2018 00:00
Orbit: 1525 x 1684 km, 47.3° (Epoch: 19 June)

Date Brightness Start Highest point End Pass type
(mag) Time Alt. Az. Time Alt. Az. Time Alt. Az.
20 Jun - 07:16:48 10° SE 07:19:47 12° SE 07:22:45 10° ESE daylight
20 Jun - 09:14:16 10° SSW 09:22:26 35° SE 09:30:31 10° E daylight
20 Jun - 11:17:09 10° WSW 11:26:12 57° S 11:35:13 10° E daylight
20 Jun - 13:21:25 10° W 13:30:24 56° SSW 13:39:25 10° ESE daylight
20 Jun - 15:26:12 10° W 15:34:04 32° SW 15:42:01 10° SSE daylight
21 Jun - 06:56:05 10° SE 06:58:19 11° SE 07:00:32 10° ESE daylight
21 Jun - 08:52:49 10° SSW 09:00:54 34° SE 09:08:54 10° E daylight
21 Jun - 10:55:35 10° WSW 11:04:38 57° SSE 11:13:37 10° E daylight
21 Jun - 12:59:50 10° W 13:08:50 56° SSW 13:17:51 10° ESE daylight
21 Jun - 15:04:35 10° W 15:12:32 33° SW 15:20:34 10° SSE daylight
21 Jun - 17:13:24 10° WSW 17:15:06 11° SW 17:16:49 10° SW daylight
22 Jun - 06:35:54 10° SE 06:36:50 10° ESE 06:37:46 10° ESE daylight
22 Jun - 08:31:21 10° SSW 08:39:23 33° SE 08:47:18 10° E daylight
22 Jun - 10:34:01 10° WSW 10:43:04 56° SSE 10:52:03 10° E daylight
22 Jun - 12:38:15 10° W 12:47:17 57° S 12:56:18 10° ESE daylight
22 Jun - 14:42:58 10° W 14:51:01 34° SW 14:59:07 10° SSE daylight
22 Jun - 16:51:00 10° WSW 16:53:38 11° SW 16:56:17 10° SW daylight
23 Jun - 08:09:54 10° SSW 08:17:51 32° SE 08:25:40 10° E daylight
23 Jun - 10:12:27 10° WSW 10:21:31 55° SSE 10:30:28 10° E daylight
23 Jun - 12:16:39 10° W 12:25:42 58° S 12:34:44 10° ESE daylight
23 Jun - 14:21:22 10° W 14:29:29 36° SSW 14:37:40 10° SSE daylight
23 Jun - 16:28:52 10° WSW 16:32:09 12° SW 16:35:27 10° SSW daylight
24 Jun - 07:48:29 10° SSW 07:56:20 31° SE 08:04:03 10° E daylight
24 Jun - 09:50:54 10° WSW 09:59:57 55° SSE 10:08:53 10° E daylight
24 Jun - 11:55:04 10° W 12:04:08 58° S 12:13:11 10° ESE daylight
24 Jun - 13:59:45 10° W 14:07:57 37° SSW 14:16:12 10° SSE daylight
24 Jun - 16:06:53 10° WSW 16:10:41 13° SW 16:14:30 10° SSW daylight
25 Jun - 07:27:03 10° SSW 07:34:48 30° SE 07:42:26 10° E daylight
25 Jun - 09:29:20 10° WSW 09:38:23 54° SSE 09:47:19 10° E daylight
25 Jun - 11:33:29 10° W 11:42:35 59° S 11:51:37 10° ESE daylight
25 Jun - 13:38:09 10° W 13:46:26 38° SSW 13:54:44 10° SSE daylight
25 Jun - 15:44:58 10° W 15:49:12 14° SW 15:53:28 10° SSW daylight
26 Jun - 07:05:38 10° SSW 07:13:17 29° SE 07:20:49 10° E daylight
26 Jun - 09:07:47 10° SW 09:16:50 53° SSE 09:25:44 10° E daylight
26 Jun - 11:11:54 10° W 11:21:01 59° S 11:30:04 10° ESE daylight
26 Jun - 13:16:33 10° W 13:24:53 39° SSW 13:33:16 10° SSE daylight
26 Jun - 15:23:05 10° W 15:27:43 15° SW 15:32:22 10° SSW daylight
27 Jun - 06:44:13 10° SSW 06:51:46 27° SE 06:59:11 10° E daylight
27 Jun - 08:46:14 10° SW 08:55:16 52° SSE 09:04:09 10° E daylight
27 Jun - 10:50:18 10° W 10:59:27 59° S 11:08:30 10° ESE daylight
27 Jun - 12:54:56 10° W 13:03:21 40° SSW 13:11:46 10° SE daylight
27 Jun - 15:01:16 10° W 15:06:14 16° SW 15:11:14 10° SSW daylight
28 Jun - 06:22:48 10° S 06:30:15 26° SE 06:37:33 10° E daylight
28 Jun - 08:24:40 10° SW 08:33:42 51° SSE 08:42:34 10° E daylight
28 Jun - 10:28:43 10° W 10:37:53 60° S 10:46:56 10° ESE daylight
28 Jun - 12:33:20 10° W 12:41:49 41° SSW 12:50:17 10° SE daylight
28 Jun - 14:39:28 10° W 14:44:45 17° SW 14:50:03 10° SSW daylight
29 Jun - 06:01:25 10° S 06:08:44 25° SE 06:15:54 10° E daylight
29 Jun - 08:03:07 10° SW 08:12:09 50° SSE 08:21:00 10° E daylight
29 Jun - 10:07:07 10° W 10:16:19 60° S 10:25:22 10° ESE daylight
29 Jun - 12:11:44 10° W 12:20:17 42° SSW 12:28:48 10° SE daylight
29 Jun - 14:17:42 10° W 14:23:16 18° SW 14:28:50 10° SSW daylight
